Regional Weather Roundup
Issued by NWS

Home | Current Version | Previous Version | Text Only | Print | Product List | Glossary Off
Versions: 1 2 3 4 5 6 7 8 9 10 11 12 13 14 15 16 17 18 19 20 21 22 23 24 25 26 27 28 29 30 31 32 33 34 35 36 37 38 39 40 41 42 43 44 45 46 47 48 49 50

802
ASUS44 KMEG 231000
RWRTN
TENNESSEE HOURLY STATE WEATHER ROUNDUP
NATIONAL WEATHER SERVICE MEMPHIS TN
400 AM CST MON JAN 23 2017

TNZ002-004-019-021-049-052-054-088>092-231100-
WEST TENNESSEE

CITY           SKY/WX    TMP DP  RH WIND       PRES   REMARKS
MEMPHIS INTL   CLOUDY    46  40  79 NW18G26   29.66R
NWS MEMPHIS      N/A     47 N/A N/A MISG        N/A
JACKSON        CLOUDY    46  40  79 NW23G31   29.61R
DYERSBURG      CLOUDY    45  36  70 N14G32    29.64R
UNION CITY     CLEAR     43  43 100 NW20      29.61R
PARIS          CLOUDY    43  37  81 NW9G20    29.56R
$$

TNZ008-025-027-028-033-062-065-066-231100-
NORTH MIDDLE TENNESSEE

CITY           SKY/WX    TMP DP  RH WIND       PRES   REMARKS
NASHVILLE      CLOUDY    55  49  80 NW18G33   29.37R
CLARKSVILLE    CLOUDY    49  44  83 NW20      29.48R
SMYRNA         LGT RAIN  54  51  90 NW22G29   29.36R
CROSSVILLE     CLOUDY    51  49  92 NW12      29.24R
$$

TNZ061-075-076-078-094-096-097-231100-
SOUTH MIDDLE TENNESSEE

CITY           SKY/WX    TMP DP  RH WIND       PRES   REMARKS
TULLAHOMA      CLOUDY    52  52 100 NW21      29.31R
WINCHESTER     CLOUDY    54  52  94 N13       29.28R
SHELBYVILLE    CLOUDY    55  54  94 NW18      29.33R
$$

TNZ017-018-042-046-047-231100-
NORTHEAST TENNESSEE

CITY           SKY/WX    TMP DP  RH WIND       PRES   REMARKS
TRI CITIES     CLOUDY    51  51 100 NE6       29.18S
$$

TNZ012-013-036-069-073-074-231100-
CENTRAL EAST TENNESSEE

CITY           SKY/WX    TMP DP  RH WIND       PRES   REMARKS
KNOXVILLE      LGT RAIN  51  49  92 W10       29.20S FOG
OAK RIDGE      CLOUDY    51  47  86 W6        29.23R
GATLINBURG     CLOUDY    50  48  93 NW6       29.20R
$$

TNZ083-085-099-231100-
SOUTHEAST TENNESSEE

CITY           SKY/WX    TMP DP  RH WIND       PRES   REMARKS
CHATTANOOGA    LGT RAIN  50  46  86 SW5       29.24S
$$

SKY/WX REPORTED AS FAIR MEANS FEW OR NO CLOUDS BELOW
12 THOUSAND FEET.





USA.gov is the U.S. government's official web portal to all federal, state and local government web resources and services.